Hauptseite
METAR-TAF:

METAR-TAF

Flughäfen :

Monte Cimone, Italien

Breite: 44-12N, Länge: 010-42E, Höhe: 2165 m

Beobachtung

Neuester Wetterbericht von vor 1 Stunde und 10 Minuten, um 08:55 UTC
Wind 40 kt aus Nordost, Böen bis zu 50 kt
Temperatur 2°C
Luftfeuchtigkeit 60%
Luftdruck 1030 hPa
Sichtweite 10 km oder mehr
keine Wolken unter 1500 m und keine Kumulonimbus oder Gewitterwolken

METAR: LIVC 190855Z 04040G50KT CAVOK 02/M05 Q1030 RMK SKC MON LIB VAL NIL VIS MIN 9999

Zeit: 12:05 (10:05 UTC)


TAF: fehlend

Wetterbeobachtungen und Prognosen von mehr als 4000 Flughäfen (METAR und TAF Bericht).

Die verfügbaren Stationen werden durch gelbe und rote Markierungen auf der Karte dargestellt.

Führen Sie die Maus auf sie, um den Namen der Station zu sehen.

Darauf klicken, um die Beobachtung von Wetterbeobachtungen und Prognosen zu sehen.

Um die Karte zu ändern : klicken Sie auf den grünen Tasten mit einem schwarzen Kreuz Zum Vergrößern, auf den grünen Button mit einem Gedankenstrich zu verkleinern, oder auf die grünen Pfeile für benachbarte Karten.


METAR-TAF: